RYR3BV2 LEMH-EIDW

Flight info

Callsign RYR3BV2
Flight time 2h 31m
Altitude 36000
Route MEROS DCT LAPIT DCT CHELY DCT LUMAS DCT SOSUR DCT JUSQO DCT DIVKO DCT FJR DCT GAI DCT SECHE DCT UVELI DCT CNA DCT MANAK DCT TIRAV DCT MOKOR DCT BAGAD DCT DOLUR DCT UPCAB DCT IJALA DCT EVRIN DCT SUTEX SUTEX4L
Aircraft B738/M-SDE3FGILRWY/SB1

Departure

Time 2026-05-05 19:52
Airport Menorca Airport (LEMH)

Arrival

Time 2026-05-05 22:23
Airport Dublin Airport (EIDW)
Time Latitude Longitude Altitude Speed Heading
2026-05-05 19:03 39.86528 4.22418 298 ft 0 kts 99°
2026-05-05 19:40 39.86530 4.22400 294 ft 4 kts 91°
2026-05-05 19:40 39.86530 4.22372 295 ft 4 kts 89°
2026-05-05 19:40 39.86525 4.22345 299 ft 4 kts 45°
2026-05-05 19:41 39.86506 4.22328 294 ft 4 kts 17°
2026-05-05 19:41 39.86483 4.22321 298 ft 4 kts
2026-05-05 19:41 39.86478 4.22320 294 ft 1 kts
2026-05-05 19:45 39.86482 4.22321 294 ft 1 kts
2026-05-05 19:45 39.86497 4.22323 295 ft 3 kts
2026-05-05 19:45 39.86526 4.22328 299 ft 6 kts
2026-05-05 19:45 39.86576 4.22338 297 ft 9 kts
2026-05-05 19:46 39.86648 4.22354 294 ft 12 kts
2026-05-05 19:46 39.86738 4.22373 294 ft 14 kts
2026-05-05 19:46 39.86839 4.22394 296 ft 15 kts
2026-05-05 19:46 39.86911 4.22372 299 ft 11 kts 298°
2026-05-05 19:47 39.86928 4.22279 298 ft 10 kts 293°
2026-05-05 19:47 39.86991 4.22255 299 ft 10 kts
2026-05-05 19:47 39.87058 4.22268 303 ft 10 kts
2026-05-05 19:47 39.87125 4.22282 306 ft 10 kts 10°
2026-05-05 19:48 39.87189 4.22296 306 ft 9 kts
2026-05-05 19:48 39.87252 4.22309 308 ft 9 kts
2026-05-05 19:48 39.87313 4.22321 309 ft 9 kts 10°
2026-05-05 19:48 39.87371 4.22317 310 ft 9 kts 329°
2026-05-05 19:49 39.87391 4.22263 309 ft 6 kts 280°
2026-05-05 19:49 39.87394 4.22230 310 ft 6 kts 277°
2026-05-05 19:49 39.87385 4.22167 310 ft 5 kts 246°
2026-05-05 19:49 39.87369 4.22123 310 ft 5 kts 242°
2026-05-05 19:50 39.87342 4.22091 310 ft 5 kts 204°
2026-05-05 19:50 39.87319 4.22084 311 ft 0 kts 188°
2026-05-05 19:51 39.87259 4.22072 311 ft 35 kts 188°
2026-05-05 19:51 39.86762 4.21971 302 ft 108 kts 189°
2026-05-05 19:52 39.85814 4.21775 307 ft 165 kts 189°
2026-05-05 19:52 39.84619 4.21550 848 ft 175 kts 189°
2026-05-05 19:52 39.83407 4.21251 1624 ft 180 kts 193°
2026-05-05 19:52 39.82161 4.20839 2316 ft 190 kts 196°
2026-05-05 19:53 39.80882 4.20344 3091 ft 193 kts 197°
2026-05-05 19:53 39.79481 4.20060 3380 ft 217 kts 186°
2026-05-05 19:53 39.77939 4.19859 3716 ft 232 kts 185°
2026-05-05 19:53 39.76336 4.20282 4147 ft 249 kts 151°
2026-05-05 19:54 39.75121 4.21988 4576 ft 270 kts 117°
2026-05-05 19:54 39.74801 4.24407 5354 ft 278 kts 85°
2026-05-05 19:54 39.75215 4.26867 6206 ft 282 kts 69°
2026-05-05 19:54 39.76110 4.29156 6978 ft 287 kts 57°
2026-05-05 19:55 39.77305 4.31257 7749 ft 291 kts 49°
2026-05-05 19:55 39.78732 4.33147 8515 ft 295 kts 40°
2026-05-05 19:55 39.80377 4.34700 9284 ft 298 kts 30°
2026-05-05 19:55 39.82250 4.35890 10030 ft 302 kts 19°
2026-05-05 19:56 39.84304 4.36663 10431 ft 318 kts
2026-05-05 19:56 39.86578 4.36939 10601 ft 339 kts 357°
2026-05-05 19:56 39.88967 4.36600 11016 ft 350 kts 345°
2026-05-05 19:56 39.91282 4.35621 11677 ft 351 kts 333°
2026-05-05 19:57 39.93388 4.34031 12437 ft 350 kts 320°
2026-05-05 19:57 39.94618 4.32677 12923 ft 349 kts 312°
2026-05-05 19:57 39.96586 4.29379 13836 ft 349 kts 297°
2026-05-05 19:57 39.97984 4.26770 14468 ft 358 kts 313°
2026-05-05 19:58 40.00096 4.25002 15124 ft 369 kts 336°
2026-05-05 19:58 40.02630 4.24334 15793 ft 377 kts 355°
2026-05-05 19:58 40.05264 4.24701 16411 ft 385 kts
2026-05-05 19:58 40.07908 4.25390 17007 ft 390 kts
2026-05-05 19:59 40.10572 4.26139 17595 ft 394 kts
2026-05-05 19:59 40.13264 4.26898 18174 ft 397 kts
2026-05-05 19:59 40.15975 4.27650 18733 ft 400 kts
2026-05-05 19:59 40.18679 4.28385 19255 ft 404 kts
2026-05-05 20:00 40.21438 4.29124 19816 ft 407 kts
2026-05-05 20:00 40.24231 4.29865 20351 ft 410 kts
2026-05-05 20:00 40.27038 4.30608 20868 ft 413 kts
2026-05-05 20:00 40.29870 4.31355 21366 ft 417 kts
2026-05-05 20:01 40.32725 4.32110 21840 ft 420 kts
2026-05-05 20:01 40.35601 4.32871 22302 ft 423 kts
2026-05-05 20:01 40.38498 4.33639 22750 ft 426 kts
2026-05-05 20:01 40.41420 4.34415 23193 ft 430 kts
2026-05-05 20:02 40.44319 4.35186 23653 ft 432 kts
2026-05-05 20:02 40.47287 4.35885 24057 ft 433 kts
2026-05-05 20:02 40.50251 4.35533 24397 ft 428 kts 341°
2026-05-05 20:02 40.52996 4.34112 24818 ft 422 kts 326°
2026-05-05 20:03 40.55453 4.32009 25226 ft 422 kts 321°
2026-05-05 20:03 40.57865 4.29797 25582 ft 425 kts 321°
2026-05-05 20:03 40.60287 4.27539 25929 ft 428 kts 320°
2026-05-05 20:03 40.62724 4.25267 26286 ft 430 kts 321°
2026-05-05 20:04 40.65143 4.23023 26654 ft 432 kts 321°
2026-05-05 20:04 40.67611 4.20748 27011 ft 435 kts 321°
2026-05-05 20:04 40.70100 4.18464 27336 ft 437 kts 321°
2026-05-05 20:04 40.72606 4.16171 27666 ft 439 kts 321°
2026-05-05 20:05 40.75122 4.13873 27968 ft 442 kts 321°
2026-05-05 20:05 40.77654 4.11559 28259 ft 444 kts 321°
2026-05-05 20:05 40.80199 4.09235 28556 ft 446 kts 321°
2026-05-05 20:05 40.82749 4.06901 28848 ft 447 kts 321°
2026-05-05 20:06 40.85314 4.04552 29122 ft 450 kts 321°
2026-05-05 20:06 40.87857 4.02222 29405 ft 452 kts 321°
2026-05-05 20:06 40.90442 3.99850 29672 ft 454 kts 321°
2026-05-05 20:06 40.93037 3.97468 29963 ft 454 kts 320°
2026-05-05 20:07 40.95634 3.95090 30337 ft 454 kts 320°
2026-05-05 20:07 40.98220 3.92720 30772 ft 450 kts 320°
2026-05-05 20:07 41.00787 3.90356 31090 ft 450 kts 320°
2026-05-05 20:07 41.03360 3.87978 31340 ft 451 kts 320°
2026-05-05 20:08 41.05936 3.85594 31611 ft 452 kts 320°
2026-05-05 20:08 41.08508 3.83213 31946 ft 451 kts 320°
2026-05-05 20:08 41.11073 3.80840 32289 ft 449 kts 320°
2026-05-05 20:08 41.13602 3.78497 32565 ft 449 kts 320°
2026-05-05 20:09 41.16163 3.76123 32837 ft 449 kts 320°
2026-05-05 20:09 41.18722 3.73749 33134 ft 448 kts 320°
2026-05-05 20:09 41.21275 3.71379 33390 ft 448 kts 320°
2026-05-05 20:09 41.23833 3.69001 33638 ft 448 kts 320°
2026-05-05 20:10 41.26386 3.66628 33915 ft 448 kts 320°
2026-05-05 20:10 41.28933 3.64257 34169 ft 447 kts 319°
2026-05-05 20:10 41.31485 3.61877 34411 ft 447 kts 320°
2026-05-05 20:10 41.33997 3.59534 34677 ft 446 kts 320°
2026-05-05 20:11 41.36536 3.57162 34910 ft 445 kts 320°
2026-05-05 20:11 41.39074 3.54791 35070 ft 446 kts 320°
2026-05-05 20:11 41.41611 3.52419 35303 ft 446 kts 320°
2026-05-05 20:11 41.44148 3.50045 35549 ft 445 kts 320°
2026-05-05 20:12 41.46677 3.47670 35780 ft 444 kts 320°
2026-05-05 20:12 41.49202 3.45298 35930 ft 445 kts 320°
2026-05-05 20:12 41.51744 3.42909 35918 ft 448 kts 320°
2026-05-05 20:13 41.56804 3.38146 35917 ft 447 kts 320°
2026-05-05 20:13 41.61855 3.33390 35907 ft 442 kts 320°
2026-05-05 20:14 41.66865 3.28661 35919 ft 440 kts 320°
2026-05-05 20:14 41.71855 3.23941 35916 ft 439 kts 320°
2026-05-05 20:15 41.76833 3.19215 35920 ft 439 kts 320°
2026-05-05 20:15 41.81783 3.14511 35917 ft 440 kts 320°
2026-05-05 20:16 41.86778 3.09755 35923 ft 441 kts 320°
2026-05-05 20:16 41.91789 3.04979 35914 ft 443 kts 320°
2026-05-05 20:17 41.96816 3.00181 35918 ft 444 kts 320°
2026-05-05 20:17 42.01820 2.95387 35917 ft 445 kts 320°
2026-05-05 20:18 42.06869 2.90547 35913 ft 446 kts 320°
2026-05-05 20:18 42.11925 2.85682 35928 ft 448 kts 320°
2026-05-05 20:19 42.16996 2.80798 35922 ft 449 kts 320°
2026-05-05 20:19 42.22039 2.75931 35929 ft 449 kts 320°
2026-05-05 20:20 42.27114 2.71026 35938 ft 448 kts 320°
2026-05-05 20:20 42.32177 2.66120 35949 ft 447 kts 320°
2026-05-05 20:21 42.37222 2.61220 35956 ft 446 kts 320°
2026-05-05 20:21 42.42256 2.56321 35964 ft 445 kts 320°
2026-05-05 20:22 42.47241 2.51457 35963 ft 444 kts 320°
2026-05-05 20:22 42.52243 2.46569 35967 ft 443 kts 320°
2026-05-05 20:23 42.57240 2.41680 35985 ft 443 kts 320°
2026-05-05 20:23 42.62236 2.36785 35979 ft 443 kts 320°
2026-05-05 20:24 42.67198 2.31911 35975 ft 442 kts 320°
2026-05-05 20:24 42.72179 2.27003 35956 ft 443 kts 320°
2026-05-05 20:25 42.77174 2.22073 35988 ft 444 kts 320°
2026-05-05 20:25 42.82169 2.17139 36001 ft 443 kts 320°
2026-05-05 20:26 42.87126 2.12226 36001 ft 444 kts 320°
2026-05-05 20:26 42.92127 2.07258 35996 ft 446 kts 320°
2026-05-05 20:27 42.97143 2.02267 35997 ft 447 kts 320°
2026-05-05 20:27 43.02173 1.97254 35986 ft 448 kts 320°
2026-05-05 20:28 43.07179 1.92250 35985 ft 449 kts 320°
2026-05-05 20:28 43.12218 1.87207 35993 ft 449 kts 320°
2026-05-05 20:29 43.17268 1.82143 35990 ft 449 kts 321°
2026-05-05 20:29 43.22310 1.77076 35980 ft 450 kts 321°
2026-05-05 20:30 43.27321 1.72026 35975 ft 449 kts 321°
2026-05-05 20:30 43.32349 1.66948 35983 ft 449 kts 321°
2026-05-05 20:31 43.37382 1.61857 35976 ft 449 kts 321°
2026-05-05 20:31 43.42399 1.56770 35973 ft 448 kts 321°
2026-05-05 20:32 43.47407 1.51683 35974 ft 447 kts 321°
2026-05-05 20:32 43.52408 1.46592 35972 ft 447 kts 321°
2026-05-05 20:33 43.57368 1.41534 35971 ft 447 kts 321°
2026-05-05 20:33 43.62368 1.36425 35969 ft 447 kts 321°
2026-05-05 20:34 43.67320 1.31345 35960 ft 448 kts 321°
2026-05-05 20:34 43.72356 1.26174 35966 ft 447 kts 321°
2026-05-05 20:35 43.77319 1.21070 35962 ft 448 kts 321°
2026-05-05 20:35 43.82311 1.15926 35971 ft 448 kts 321°
2026-05-05 20:36 43.87307 1.10764 35974 ft 448 kts 320°
2026-05-05 20:36 43.92302 1.05593 35971 ft 448 kts 320°
2026-05-05 20:37 43.97255 1.00451 35973 ft 448 kts 321°
2026-05-05 20:37 44.02246 0.95262 35969 ft 448 kts 321°
2026-05-05 20:38 44.07241 0.90060 35970 ft 449 kts 321°
2026-05-05 20:38 44.12230 0.84847 35975 ft 449 kts 321°
2026-05-05 20:39 44.17193 0.79655 35969 ft 450 kts 321°
2026-05-05 20:39 44.22194 0.74409 35963 ft 450 kts 321°
2026-05-05 20:40 44.27201 0.69140 35962 ft 451 kts 321°
2026-05-05 20:40 44.32217 0.63857 35965 ft 452 kts 321°
2026-05-05 20:41 44.37230 0.58563 35960 ft 451 kts 321°
2026-05-05 20:41 44.42200 0.53306 35961 ft 451 kts 321°
2026-05-05 20:42 44.47597 0.48849 35983 ft 452 kts 333°
2026-05-05 20:42 44.53301 0.45161 35971 ft 451 kts 333°
2026-05-05 20:43 44.58997 0.41463 35972 ft 451 kts 333°
2026-05-05 20:43 44.64630 0.37737 35970 ft 450 kts 333°
2026-05-05 20:44 44.70289 0.33957 35962 ft 450 kts 333°
2026-05-05 20:44 44.75955 0.30162 35962 ft 451 kts 333°
2026-05-05 20:45 44.84354 0.24196 35952 ft 450 kts 323°
2026-05-05 20:45 44.89307 0.18935 35963 ft 449 kts 320°
2026-05-05 20:46 44.94213 0.13504 35967 ft 448 kts 320°
2026-05-05 20:46 44.99148 0.08104 35967 ft 449 kts 321°
2026-05-05 20:47 45.04110 0.02735 35960 ft 450 kts 321°
2026-05-05 20:47 45.09054 -0.02597 35958 ft 450 kts 321°
2026-05-05 20:48 45.14041 -0.07982 35963 ft 451 kts 322°
2026-05-05 20:48 45.19020 -0.13373 35950 ft 450 kts 322°
2026-05-05 20:49 45.23990 -0.18765 35955 ft 449 kts 322°
2026-05-05 20:49 45.28908 -0.24115 35952 ft 448 kts 322°
2026-05-05 20:50 45.33010 -0.28591 35942 ft 447 kts 322°
2026-05-05 20:50 45.38759 -0.34876 35943 ft 445 kts 322°
2026-05-05 20:51 45.43664 -0.40250 35943 ft 445 kts 322°
2026-05-05 20:51 45.48526 -0.45591 35949 ft 445 kts 322°
2026-05-05 20:52 45.53429 -0.50986 35944 ft 445 kts 322°
2026-05-05 20:52 45.58321 -0.56381 35943 ft 445 kts 322°
2026-05-05 20:53 45.63215 -0.61790 35945 ft 445 kts 322°
2026-05-05 20:53 45.68084 -0.67182 35935 ft 446 kts 322°
2026-05-05 20:54 45.72991 -0.72631 35937 ft 447 kts 322°
2026-05-05 20:54 45.77907 -0.78103 35936 ft 448 kts 322°
2026-05-05 20:55 45.82829 -0.83597 35923 ft 449 kts 322°
2026-05-05 20:55 45.87726 -0.89072 35925 ft 449 kts 322°
2026-05-05 20:56 45.92650 -0.94591 35913 ft 449 kts 322°
2026-05-05 20:56 45.97567 -1.00113 35919 ft 449 kts 322°
2026-05-05 20:57 46.02483 -1.05646 35917 ft 448 kts 322°
2026-05-05 20:57 46.07354 -1.11140 35909 ft 447 kts 322°
2026-05-05 20:58 46.12242 -1.16669 35918 ft 447 kts 322°
2026-05-05 20:58 46.17128 -1.22212 35916 ft 447 kts 322°
2026-05-05 20:59 46.22013 -1.27765 35916 ft 447 kts 322°
2026-05-05 20:59 46.26860 -1.33292 35915 ft 447 kts 322°
2026-05-05 21:00 46.31740 -1.38860 35914 ft 447 kts 321°
2026-05-05 21:00 46.36613 -1.44439 35920 ft 447 kts 321°
2026-05-05 21:01 46.41487 -1.50026 35914 ft 447 kts 321°
2026-05-05 21:01 46.46322 -1.55580 35919 ft 447 kts 321°
2026-05-05 21:02 46.51192 -1.61191 35916 ft 447 kts 321°
2026-05-05 21:02 46.56063 -1.66815 35922 ft 447 kts 321°
2026-05-05 21:03 46.60928 -1.72450 35914 ft 448 kts 321°
2026-05-05 21:03 46.65763 -1.78065 35916 ft 448 kts 321°
2026-05-05 21:04 46.70632 -1.83728 35915 ft 448 kts 321°
2026-05-05 21:04 46.75500 -1.89404 35920 ft 448 kts 321°
2026-05-05 21:05 46.80363 -1.95089 35910 ft 448 kts 321°
2026-05-05 21:05 46.85186 -2.00739 35918 ft 448 kts 321°
2026-05-05 21:06 46.90039 -2.06440 35926 ft 447 kts 321°
2026-05-05 21:06 46.94885 -2.12150 35924 ft 447 kts 321°
2026-05-05 21:07 46.99725 -2.17861 35925 ft 446 kts 321°
2026-05-05 21:07 47.04524 -2.23537 35933 ft 446 kts 321°
2026-05-05 21:08 47.09347 -2.29257 35934 ft 445 kts 321°
2026-05-05 21:08 47.14161 -2.34982 35934 ft 445 kts 321°
2026-05-05 21:09 47.18972 -2.40711 35939 ft 445 kts 321°
2026-05-05 21:09 47.23752 -2.46418 35935 ft 446 kts 321°
2026-05-05 21:10 47.28565 -2.52180 35936 ft 446 kts 321°
2026-05-05 21:10 47.33379 -2.57958 35936 ft 447 kts 321°
2026-05-05 21:11 47.38190 -2.63748 35942 ft 446 kts 321°
2026-05-05 21:11 47.42967 -2.69505 35943 ft 446 kts 321°
2026-05-05 21:12 47.47769 -2.75312 35945 ft 446 kts 321°
2026-05-05 21:12 47.52565 -2.81128 35943 ft 446 kts 321°
2026-05-05 21:13 47.57367 -2.86960 35947 ft 446 kts 321°
2026-05-05 21:13 47.62235 -2.92566 35946 ft 446 kts 324°
2026-05-05 21:14 47.67247 -2.97984 35943 ft 445 kts 324°
2026-05-05 21:14 47.72251 -3.03398 35944 ft 445 kts 324°
2026-05-05 21:15 47.77225 -3.08836 35953 ft 444 kts 324°
2026-05-05 21:15 47.82180 -3.14298 35954 ft 443 kts 324°
2026-05-05 21:16 47.87093 -3.19727 35962 ft 442 kts 324°
2026-05-05 21:16 47.92030 -3.25197 35961 ft 443 kts 324°
2026-05-05 21:17 47.96966 -3.30680 35962 ft 442 kts 324°
2026-05-05 21:17 48.01897 -3.36166 35963 ft 442 kts 324°
2026-05-05 21:18 48.06775 -3.41613 35964 ft 441 kts 323°
2026-05-05 21:18 48.11681 -3.47100 35965 ft 440 kts 323°
2026-05-05 21:19 48.16576 -3.52588 35985 ft 439 kts 323°
2026-05-05 21:19 48.21453 -3.58078 35979 ft 438 kts 323°
2026-05-05 21:20 48.26290 -3.63527 35989 ft 438 kts 323°
2026-05-05 21:20 48.31163 -3.69030 35989 ft 438 kts 323°
2026-05-05 21:21 48.36030 -3.74539 35990 ft 438 kts 323°
2026-05-05 21:21 48.40868 -3.80034 35992 ft 439 kts 323°
2026-05-05 21:22 48.45743 -3.85582 35990 ft 440 kts 323°
2026-05-05 21:22 48.50624 -3.91150 36001 ft 440 kts 323°
2026-05-05 21:23 48.54677 -3.95783 35998 ft 440 kts 323°
2026-05-05 21:23 48.60377 -4.02315 35988 ft 441 kts 323°
2026-05-05 21:24 48.65227 -4.07890 35990 ft 441 kts 323°
2026-05-05 21:24 48.70100 -4.13506 35994 ft 440 kts 323°
2026-05-05 21:25 48.74970 -4.19128 35994 ft 440 kts 323°
2026-05-05 21:25 48.79823 -4.24746 35999 ft 439 kts 323°
2026-05-05 21:26 48.84636 -4.30335 35999 ft 438 kts 323°
2026-05-05 21:26 48.89468 -4.35960 36007 ft 437 kts 323°
2026-05-05 21:27 48.93476 -4.40635 36012 ft 438 kts 323°
2026-05-05 21:27 48.98305 -4.46280 36015 ft 437 kts 323°
2026-05-05 21:28 49.03126 -4.51929 36019 ft 437 kts 323°
2026-05-05 21:28 49.07935 -4.57579 36022 ft 437 kts 323°
2026-05-05 21:29 49.13539 -4.64181 36017 ft 437 kts 323°
2026-05-05 21:29 49.17543 -4.68908 36021 ft 437 kts 323°
2026-05-05 21:30 49.22357 -4.74607 36018 ft 438 kts 322°
2026-05-05 21:30 49.27167 -4.80320 36015 ft 437 kts 322°
2026-05-05 21:31 49.31935 -4.85997 36021 ft 437 kts 322°
2026-05-05 21:31 49.36731 -4.91718 36018 ft 437 kts 322°
2026-05-05 21:32 49.41519 -4.97443 36018 ft 436 kts 322°
2026-05-05 21:32 49.46296 -5.03166 36016 ft 435 kts 322°
2026-05-05 21:33 49.51234 -5.08415 36021 ft 434 kts 330°
2026-05-05 21:33 49.56512 -5.12912 36015 ft 434 kts 332°
2026-05-05 21:34 49.61816 -5.17368 36016 ft 434 kts 332°
2026-05-05 21:34 49.67104 -5.21894 36021 ft 435 kts 331°
2026-05-05 21:35 49.72378 -5.26471 36018 ft 435 kts 331°
2026-05-05 21:35 49.77617 -5.31043 36019 ft 435 kts 331°
2026-05-05 21:36 49.82892 -5.35657 36020 ft 436 kts 331°
2026-05-05 21:36 49.88176 -5.40293 36022 ft 435 kts 331°
2026-05-05 21:37 49.93438 -5.44923 36015 ft 435 kts 331°
2026-05-05 21:37 49.98663 -5.49530 36019 ft 435 kts 331°
2026-05-05 21:38 50.03918 -5.54171 36020 ft 434 kts 331°
2026-05-05 21:38 50.09162 -5.58816 36020 ft 433 kts 331°
2026-05-05 21:39 50.14363 -5.63435 36022 ft 433 kts 331°
2026-05-05 21:39 50.19591 -5.68097 36014 ft 433 kts 330°
2026-05-05 21:40 50.24832 -5.72775 36021 ft 434 kts 330°
2026-05-05 21:40 50.30067 -5.77459 36020 ft 433 kts 330°
2026-05-05 21:41 50.35296 -5.82149 36018 ft 434 kts 330°
2026-05-05 21:41 50.40503 -5.86834 36022 ft 434 kts 330°
2026-05-05 21:42 50.45739 -5.91559 36018 ft 434 kts 330°
2026-05-05 21:42 50.50968 -5.96289 36025 ft 433 kts 330°
2026-05-05 21:43 50.56179 -6.01010 36030 ft 433 kts 330°
2026-05-05 21:43 50.61361 -6.05718 36032 ft 432 kts 330°
2026-05-05 21:44 50.66568 -6.10465 36024 ft 432 kts 330°
2026-05-05 21:44 50.71770 -6.15221 36029 ft 433 kts 330°
2026-05-05 21:45 50.76974 -6.19988 36028 ft 433 kts 330°
2026-05-05 21:45 50.82146 -6.24738 36028 ft 433 kts 330°
2026-05-05 21:46 50.87358 -6.29531 36035 ft 433 kts 331°
2026-05-05 21:46 50.92975 -6.32854 36035 ft 433 kts 349°
2026-05-05 21:47 50.98913 -6.34545 36032 ft 434 kts 350°
2026-05-05 21:47 51.04819 -6.36204 36035 ft 434 kts 349°
2026-05-05 21:48 51.10756 -6.37943 36033 ft 434 kts 349°
2026-05-05 21:48 51.16701 -6.39722 36051 ft 435 kts 349°
2026-05-05 21:49 51.22646 -6.41502 36052 ft 435 kts 349°
2026-05-05 21:49 51.28590 -6.43284 36048 ft 435 kts 349°
2026-05-05 21:50 51.34517 -6.44882 36047 ft 435 kts 350°
2026-05-05 21:50 51.40485 -6.46395 36057 ft 434 kts 350°
2026-05-05 21:51 51.46457 -6.47935 36062 ft 434 kts 350°
2026-05-05 21:51 51.52415 -6.49490 36068 ft 434 kts 350°
2026-05-05 21:52 51.61272 -6.51819 35724 ft 426 kts 350°
2026-05-05 21:52 51.64165 -6.52568 35413 ft 419 kts 352°
2026-05-05 21:53 51.67067 -6.52709 35003 ft 416 kts
2026-05-05 21:53 51.69910 -6.51928 34643 ft 413 kts 15°
2026-05-05 21:53 51.72651 -6.50625 34295 ft 409 kts 16°
2026-05-05 21:53 51.75362 -6.49287 33918 ft 406 kts 16°
2026-05-05 21:54 51.78048 -6.47955 33536 ft 403 kts 16°
2026-05-05 21:54 51.80727 -6.46635 33126 ft 401 kts 16°
2026-05-05 21:54 51.83357 -6.45349 32721 ft 399 kts 16°
2026-05-05 21:54 51.86006 -6.44062 32335 ft 397 kts 15°
2026-05-05 21:55 51.88643 -6.42788 31960 ft 394 kts 15°
2026-05-05 21:55 51.91268 -6.41521 31605 ft 392 kts 15°
2026-05-05 21:55 51.93874 -6.40266 31251 ft 389 kts 15°
2026-05-05 21:55 51.96458 -6.39021 30870 ft 387 kts 15°
2026-05-05 21:56 51.99033 -6.37779 30495 ft 385 kts 15°
2026-05-05 21:56 52.01590 -6.36547 30124 ft 383 kts 15°
2026-05-05 21:56 52.04100 -6.35333 29774 ft 380 kts 15°
2026-05-05 21:56 52.06623 -6.34110 29399 ft 377 kts 15°
2026-05-05 21:57 52.09131 -6.32892 28996 ft 376 kts 15°
2026-05-05 21:57 52.11631 -6.31677 28595 ft 374 kts 15°
2026-05-05 21:57 52.14114 -6.30471 28200 ft 371 kts 15°
2026-05-05 21:57 52.16577 -6.29272 27807 ft 370 kts 15°
2026-05-05 21:58 52.19038 -6.28072 27435 ft 367 kts 15°
2026-05-05 21:58 52.21482 -6.26878 27066 ft 365 kts 15°
2026-05-05 21:58 52.23910 -6.25693 26684 ft 364 kts 15°
2026-05-05 21:58 52.26295 -6.24528 26334 ft 362 kts 15°
2026-05-05 21:59 52.28696 -6.23351 25980 ft 360 kts 15°
2026-05-05 21:59 52.31085 -6.22182 25617 ft 357 kts 15°
2026-05-05 21:59 52.33464 -6.21016 25253 ft 356 kts 15°
2026-05-05 21:59 52.35827 -6.19854 24881 ft 354 kts 15°
2026-05-05 22:00 52.38176 -6.18698 24501 ft 352 kts 16°
2026-05-05 22:00 52.40518 -6.17545 24135 ft 351 kts 16°
2026-05-05 22:00 52.42842 -6.16399 23783 ft 348 kts 16°
2026-05-05 22:00 52.45156 -6.15255 23418 ft 346 kts 16°
2026-05-05 22:01 52.47423 -6.14135 23060 ft 345 kts 16°
2026-05-05 22:01 52.49717 -6.13001 22708 ft 343 kts 15°
2026-05-05 22:01 52.51991 -6.11876 22359 ft 341 kts 15°
2026-05-05 22:01 52.54255 -6.10755 22010 ft 339 kts 15°
2026-05-05 22:02 52.56505 -6.09639 21665 ft 337 kts 15°
2026-05-05 22:02 52.58742 -6.08527 21317 ft 335 kts 15°
2026-05-05 22:02 52.60968 -6.07421 20977 ft 333 kts 15°
2026-05-05 22:02 52.63183 -6.06319 20622 ft 332 kts 15°
2026-05-05 22:03 52.65383 -6.05223 20273 ft 330 kts 15°
2026-05-05 22:03 52.67549 -6.04143 19946 ft 328 kts 15°
2026-05-05 22:03 52.69728 -6.03055 19617 ft 326 kts 15°
2026-05-05 22:03 52.71896 -6.01972 19285 ft 325 kts 15°
2026-05-05 22:04 52.74051 -6.00893 18946 ft 323 kts 15°
2026-05-05 22:04 52.76195 -5.99820 18612 ft 321 kts 15°
2026-05-05 22:04 52.78331 -5.98748 18276 ft 320 kts 15°
2026-05-05 22:04 52.80455 -5.97683 17948 ft 319 kts 15°
2026-05-05 22:05 52.82569 -5.96622 17619 ft 317 kts 15°
2026-05-05 22:05 52.84644 -5.95579 17283 ft 315 kts 15°
2026-05-05 22:05 52.86739 -5.94526 16966 ft 314 kts 15°
2026-05-05 22:05 52.88819 -5.93478 16655 ft 312 kts 15°
2026-05-05 22:06 52.90889 -5.92433 16324 ft 310 kts 15°
2026-05-05 22:06 52.92943 -5.91394 15987 ft 309 kts 15°
2026-05-05 22:06 52.94998 -5.90356 15652 ft 307 kts 15°
2026-05-05 22:06 52.97037 -5.89323 15346 ft 305 kts 15°
2026-05-05 22:07 52.99062 -5.88297 15028 ft 304 kts 15°
2026-05-05 22:07 53.01080 -5.87275 14710 ft 302 kts 15°
2026-05-05 22:07 53.03062 -5.86269 14401 ft 301 kts 15°
2026-05-05 22:07 53.05057 -5.85255 14077 ft 299 kts 15°
2026-05-05 22:08 53.07043 -5.84245 13769 ft 298 kts 15°
2026-05-05 22:08 53.09022 -5.83239 13433 ft 297 kts 16°
2026-05-05 22:08 53.11010 -5.82228 12978 ft 301 kts 16°
2026-05-05 22:08 53.13023 -5.81203 12537 ft 304 kts 15°
2026-05-05 22:09 53.15095 -5.80572 12067 ft 305 kts 358°
2026-05-05 22:09 53.17214 -5.80740 11642 ft 305 kts 360°
2026-05-05 22:09 53.19265 -5.80030 11182 ft 309 kts 22°
2026-05-05 22:09 53.21131 -5.78249 10739 ft 312 kts 39°
2026-05-05 22:10 53.22472 -5.75426 10288 ft 314 kts 64°
2026-05-05 22:10 53.23009 -5.71902 9845 ft 316 kts 88°
2026-05-05 22:10 53.22791 -5.68256 9412 ft 317 kts 102°
2026-05-05 22:10 53.22325 -5.64668 8977 ft 316 kts 97°
2026-05-05 22:11 53.22391 -5.61033 8498 ft 315 kts 75°
2026-05-05 22:11 53.23229 -5.57681 8071 ft 313 kts 60°
2026-05-05 22:11 53.24515 -5.54785 7608 ft 311 kts 44°
2026-05-05 22:11 53.26101 -5.52417 7194 ft 310 kts 39°
2026-05-05 22:12 53.27722 -5.50146 7083 ft 298 kts 39°
2026-05-05 22:12 53.29359 -5.48174 7054 ft 283 kts 27°
2026-05-05 22:12 53.31079 -5.46754 7051 ft 269 kts 24°
2026-05-05 22:12 53.32753 -5.45460 7053 ft 263 kts 24°
2026-05-05 22:13 53.34411 -5.44194 7066 ft 263 kts 24°
2026-05-05 22:13 53.36088 -5.42919 7076 ft 267 kts 24°
2026-05-05 22:13 53.37842 -5.42039 7046 ft 261 kts 359°
2026-05-05 22:13 53.39510 -5.42870 6992 ft 248 kts 323°
2026-05-05 22:14 53.40510 -5.45096 6721 ft 248 kts 288°
2026-05-05 22:14 53.40508 -5.47952 6368 ft 251 kts 251°
2026-05-05 22:14 53.39959 -5.50688 6022 ft 247 kts 264°
2026-05-05 22:14 53.39952 -5.53527 5667 ft 242 kts 273°
2026-05-05 22:15 53.39995 -5.56339 5287 ft 241 kts 272°
2026-05-05 22:15 53.40027 -5.59133 4900 ft 239 kts 272°
2026-05-05 22:15 53.40054 -5.61908 4531 ft 238 kts 272°
2026-05-05 22:15 53.40079 -5.64673 4168 ft 235 kts 272°
2026-05-05 22:16 53.40103 -5.67309 4022 ft 224 kts 272°
2026-05-05 22:16 53.40126 -5.69852 3894 ft 212 kts 272°
2026-05-05 22:16 53.40145 -5.72255 3794 ft 201 kts 272°
2026-05-05 22:16 53.40163 -5.74587 3718 ft 200 kts 272°
2026-05-05 22:17 53.40182 -5.76912 3638 ft 200 kts 272°
2026-05-05 22:17 53.40204 -5.79247 3548 ft 202 kts 272°
2026-05-05 22:17 53.40223 -5.81716 3480 ft 222 kts 272°
2026-05-05 22:17 53.40241 -5.84323 3411 ft 221 kts 271°
2026-05-05 22:18 53.40256 -5.86800 3292 ft 210 kts 272°
2026-05-05 22:18 53.40270 -5.89178 3172 ft 199 kts 272°
2026-05-05 22:18 53.40283 -5.91497 3071 ft 199 kts 272°
2026-05-05 22:18 53.40298 -5.93788 3023 ft 194 kts 272°
2026-05-05 22:19 53.40371 -5.96017 3000 ft 190 kts 277°
2026-05-05 22:19 53.40549 -5.98206 2996 ft 190 kts 280°
2026-05-05 22:19 53.40718 -6.00400 2995 ft 189 kts 277°
2026-05-05 22:19 53.40843 -6.02562 2818 ft 184 kts 276°
2026-05-05 22:20 53.40953 -6.04661 2594 ft 178 kts 275°
2026-05-05 22:20 53.41058 -6.06675 2355 ft 173 kts 275°
2026-05-05 22:20 53.41161 -6.08646 2135 ft 165 kts 274°
2026-05-05 22:20 53.41257 -6.10489 1918 ft 153 kts 274°
2026-05-05 22:21 53.41349 -6.12255 1716 ft 152 kts 274°
2026-05-05 22:21 53.41441 -6.14011 1520 ft 152 kts 274°
2026-05-05 22:21 53.41535 -6.15787 1322 ft 152 kts 275°
2026-05-05 22:21 53.41627 -6.17546 1111 ft 150 kts 275°
2026-05-05 22:22 53.41717 -6.19278 923 ft 149 kts 274°
2026-05-05 22:22 53.41788 -6.21012 724 ft 149 kts 275°
2026-05-05 22:22 53.41893 -6.22737 527 ft 149 kts 275°
2026-05-05 22:22 53.41985 -6.24428 333 ft 147 kts 275°
2026-05-05 22:23 53.42078 -6.26104 212 ft 133 kts 274°
2026-05-05 22:23 53.42148 -6.27298 209 ft 72 kts 275°
2026-05-05 22:23 53.42207 -6.27854 215 ft 35 kts 293°
2026-05-05 22:23 53.42301 -6.28119 219 ft 14 kts 323°
2026-05-05 22:24 53.42366 -6.28080 210 ft 11 kts 94°
2026-05-05 22:24 53.42359 -6.27984 210 ft 7 kts 95°
2026-05-05 22:24 53.42349 -6.27903 219 ft 7 kts 112°
2026-05-05 22:24 53.42347 -6.27822 213 ft 7 kts 88°
2026-05-05 22:25 53.42350 -6.27742 210 ft 7 kts 95°
2026-05-05 22:25 53.42343 -6.27660 213 ft 8 kts 97°
2026-05-05 22:25 53.42335 -6.27554 210 ft 11 kts 97°
2026-05-05 22:25 53.42327 -6.27420 210 ft 12 kts 95°
2026-05-05 22:26 53.42321 -6.27285 213 ft 12 kts 95°
2026-05-05 22:26 53.42314 -6.27153 216 ft 11 kts 96°
2026-05-05 22:26 53.42307 -6.27024 218 ft 11 kts 95°
2026-05-05 22:26 53.42300 -6.26901 210 ft 11 kts 95°
2026-05-05 22:27 53.42293 -6.26780 210 ft 10 kts 95°
2026-05-05 22:27 53.42286 -6.26656 210 ft 12 kts 95°
2026-05-05 22:27 53.42278 -6.26505 211 ft 14 kts 95°
2026-05-05 22:27 53.42268 -6.26322 210 ft 17 kts 95°
2026-05-05 22:28 53.42257 -6.26113 210 ft 19 kts 95°
2026-05-05 22:28 53.42298 -6.25913 210 ft 18 kts 51°
2026-05-05 22:28 53.42383 -6.25760 210 ft 18 kts 46°
2026-05-05 22:28 53.42468 -6.25617 214 ft 17 kts 44°
2026-05-05 22:29 53.42551 -6.25480 214 ft 16 kts 46°
2026-05-05 22:29 53.42627 -6.25346 212 ft 16 kts 45°
2026-05-05 22:29 53.42703 -6.25219 214 ft 15 kts 45°
2026-05-05 22:29 53.42774 -6.25094 214 ft 15 kts 47°
2026-05-05 22:30 53.42851 -6.24991 216 ft 14 kts 47°
2026-05-05 22:30 53.42901 -6.24901 213 ft 9 kts 42°
2026-05-05 22:30 53.42948 -6.24931 215 ft 7 kts 295°
2026-05-05 22:30 53.42982 -6.24948 210 ft 5 kts
2026-05-05 22:31 53.43008 -6.24943 214 ft 1 kts
2026-05-05 22:31 53.43009 -6.24943 210 ft 0 kts